GEFSMA_500_meanwind_240.txt.gz
Wind_Speed
19 19 20 20 20 21 20 21 22 22 21 22 22 21 21 21 21 20 20 20 20 20 20 20 19 19 20 21 21 20 21 22 23 24 25 25 25 25 25 25 24 24 24
20 20 21 21 22 21 20 20 21 21 22 22 21 21 21 21 22 22 21 21 21 21 21 21 21 21 22 22 22 22 23 23 24 25 26 25 26 26 26 26 26 26 26
20 20 20 21 21 20 20 20 21 21 21 21 21 20 20 20 21 22 22 22 22 22 22 22 22 22 22 22 23 23 24 24 25 25 26 27 27 27 27 28 28 28 28
21 21 21 21 20 21 21 21 21 21 21 21 21 21 21 21 21 21 21 21 21 22 23 23 23 23 23 23 24 24 24 25 25 26 27 28 28 29 29 29 30 31 30
22 22 21 21 21 21 21 21 21 21 21 21 21 21 22 22 22 22 21 21 21 21 23 23 24 25 24 24 25 25 26 27 27 28 28 29 30 31 32 31 31 32 31
21 21 22 21 21 21 21 21 22 22 22 21 22 22 22 23 22 22 22 22 22 23 24 24 24 24 25 26 26 27 27 28 29 30 30 31 32 33 33 34 33 33 33
21 22 21 21 21 22 22 22 22 22 22 22 22 22 22 22 23 23 22 22 22 23 24 24 25 25 26 26 27 28 29 30 31 31 31 32 33 34 34 34 35 34 35
21 22 22 21 21 21 22 22 22 22 22 22 22 23 23 22 22 22 22 23 23 24 25 25 26 27 27 28 28 29 30 31 32 32 32 32 32 34 34 34 35 35 35
22 22 22 22 22 23 22 21 21 21 21 21 21 21 21 22 22 22 23 24 24 25 26 27 27 28 28 29 29 30 31 31 32 32 33 33 33 34 35 35 35 35 35
22 22 22 21 22 23 22 20 21 21 21 21 21 20 20 21 22 23 24 24 25 26 27 27 28 29 30 30 30 30 31 32 32 33 33 33 32 33 35 36 36 37 37
22 23 22 21 22 21 21 20 21 21 22 22 21 21 21 22 23 25 24 25 26 28 28 29 29 30 31 30 30 30 31 31 32 33 33 33 33 34 35 36 37 38 38
21 21 21 21 21 21 21 21 21 21 21 21 22 22 22 23 24 25 26 26 26 28 29 30 30 30 31 30 30 30 31 32 33 33 34 35 35 35 36 37 37 39 39
20 20 20 20 20 19 19 19 20 20 21 21 22 22 23 24 25 26 27 26 27 27 28 29 30 30 30 30 30 31 32 33 34 35 35 35 36 36 37 37 38 38 40
20 20 20 19 18 17 18 19 19 20 21 22 22 23 24 25 25 26 26 26 26 26 27 27 28 28 29 30 30 31 32 33 35 36 36 36 36 36 36 37 38 38 39
19 18 17 17 17 18 18 19 21 21 21 22 23 23 24 25 25 25 26 26 26 26 26 26 26 27 28 29 30 32 32 33 34 36 37 37 37 38 38 38 38 39 39
17 16 16 16 16 17 19 20 21 21 22 22 22 23 23 23 24 25 25 25 26 26 26 26 27 28 28 29 30 31 31 32 33 34 36 37 38 38 38 38 38 39 39
15 15 16 16 17 17 18 19 20 21 21 21 21 22 23 24 24 24 24 25 25 26 26 26 26 27 28 29 29 30 31 31 32 33 34 35 36 37 37 38 38 39 40
15 15 14 16 17 18 18 19 20 20 20 20 21 22 23 24 24 25 25 25 25 26 27 27 27 27 28 29 29 30 30 31 31 32 32 34 35 36 37 38 38 39 39
15 14 15 16 17 18 18 19 20 20 20 21 22 22 23 24 24 25 25 26 26 27 28 28 28 28 29 29 29 29 30 30 31 31 31 32 33 34 35 35 36 37 38
14 15 16 17 17 17 18 19 20 20 20 20 22 23 23 24 25 25 26 26 26 27 28 28 28 29 29 29 29 29 30 30 30 31 32 32 32 32 33 34 35 36 38
15 15 16 16 16 17 18 20 21 21 21 22 23 23 24 25 25 26 26 27 27 27 28 29 29 29 29 29 29 29 30 30 30 31 32 32 31 31 32 33 34 35 36
15 15 16 16 17 18 19 21 22 23 23 23 24 24 25 25 26 27 28 27 27 27 28 28 28 28 28 28 29 29 30 30 30 30 31 30 30 30 31 31 32 34 35
15 16 16 17 17 19 20 21 22 23 23 23 24 24 25 26 26 26 26 26 26 27 27 28 27 27 27 27 28 28 29 30 30 30 29 29 30 29 29 30 31 32 33
15 16 17 17 18 20 21 22 22 22 23 23 24 25 25 26 25 25 25 25 26 25 25 26 26 26 27 28 28 28 30 30 29 29 29 28 27 27 27 27 28 29 30
15 16 17 18 19 20 21 22 22 23 23 24 24 25 25 25 25 25 25 25 25 25 24 25 25 26 27 27 28 28 28 28 27 27 27 26 25 25 25 25 25 25 26
16 17 17 18 19 20 21 22 22 23 23 24 25 26 25 25 25 26 25 25 24 24 24 24 25 25 25 26 27 27 27 26 25 24 24 24 23 23 23 23 23 23 23

GEFSMA_500_meanwind_246.txt.gz
Wind_Speed
18 19 18 17 18 18 17 17 18 18 18 19 19 19 19 18 18 18 18 19 19 20 20 20 20 21 20 20 20 19 20 20 21 21 21 21 21 21 22 22 22 23 23
19 18 18 17 17 17 17 18 18 18 19 19 20 19 19 19 19 19 19 19 20 21 21 21 22 21 22 21 21 21 21 22 22 23 23 23 23 23 23 23 23 24 24
18 18 18 18 18 18 18 18 18 19 19 19 19 19 18 19 20 20 20 20 20 21 22 23 22 22 22 22 22 22 22 23 24 24 25 25 25 25 25 25 25 26 26
19 18 18 18 19 18 18 18 19 19 19 20 20 19 19 19 19 20 20 20 20 21 22 22 22 22 22 23 23 23 24 24 25 26 26 26 27 27 27 27 27 27 28
19 19 18 18 19 18 19 19 19 19 20 20 20 19 19 19 20 20 21 21 21 21 22 22 22 23 23 23 24 24 24 25 25 26 27 28 28 29 29 29 30 30 30
19 19 18 19 18 18 19 19 19 20 20 20 20 20 20 21 21 21 21 21 22 22 22 23 23 23 23 24 25 25 26 26 26 27 27 28 29 30 31 31 31 31 31
19 20 19 19 18 18 19 20 20 20 20 20 20 20 20 21 21 20 21 22 23 23 23 23 23 24 25 25 26 26 27 27 28 29 29 29 30 31 32 32 33 32 33
18 18 18 19 20 20 20 19 18 18 19 19 19 19 20 20 20 20 20 20 21 22 23 23 24 25 25 26 26 27 28 28 29 30 30 30 30 31 32 33 33 33 33
18 18 19 19 20 20 19 18 17 18 19 19 19 20 20 19 19 20 21 21 21 22 23 24 24 25 26 27 27 28 29 29 30 30 31 31 31 31 31 33 34 34 34
18 18 19 19 18 17 17 18 18 18 19 19 19 19 18 19 20 20 21 22 22 23 23 24 24 24 25 27 28 29 30 30 31 32 32 32 31 32 32 33 34 35 35
18 19 18 17 17 17 17 18 18 18 17 17 17 18 19 20 21 21 21 22 23 23 24 24 25 26 25 26 27 28 29 30 31 32 32 32 32 33 33 34 35 36 36
17 17 16 16 16 17 18 18 17 16 16 17 17 18 19 20 21 22 22 23 24 25 25 25 25 25 26 26 27 27 28 30 31 32 32 32 33 34 34 34 35 36 36
15 14 14 15 15 15 16 16 16 16 16 17 18 19 20 20 21 22 23 24 24 25 26 26 26 25 26 26 26 27 28 29 30 31 31 32 33 33 34 35 36 36 37
14 14 15 15 15 15 15 15 16 17 17 18 19 20 20 21 22 23 23 24 25 25 25 26 25 26 26 26 26 27 28 29 30 30 31 32 33 33 34 35 35 36 37
14 14 15 15 14 14 14 15 15 17 18 18 20 21 21 22 23 24 25 25 24 24 25 25 25 25 25 26 27 28 28 29 30 31 32 33 33 34 35 35 35 35 35
13 14 14 13 13 13 14 15 16 17 18 20 21 21 22 23 24 24 24 24 24 24 23 23 24 25 26 26 27 29 29 30 31 31 31 32 33 34 34 35 35 35 36
12 12 13 13 13 13 14 15 16 17 18 19 20 21 22 22 23 22 22 22 23 23 22 23 24 25 26 27 28 29 30 30 31 32 32 32 31 32 33 34 35 35 35
12 13 12 12 12 13 15 15 17 17 18 19 19 19 20 21 21 20 21 21 21 22 22 22 23 25 26 27 27 28 29 30 30 31 31 31 31 31 31 32 34 34 35
12 12 12 12 12 13 14 15 17 17 18 18 19 19 20 20 20 20 21 21 21 21 22 22 23 24 25 26 26 27 28 29 30 30 31 32 31 31 32 31 32 34 34
11 11 12 12 13 13 14 15 16 17 17 18 19 20 21 20 21 21 21 21 22 22 23 23 24 25 26 26 27 27 27 27 28 28 29 29 30 31 31 31 32 34 35
11 12 12 13 13 14 15 16 16 17 18 18 19 20 20 21 21 21 21 21 22 23 24 24 24 25 26 26 26 27 26 26 26 27 27 28 29 30 30 30 32 33 35
12 12 12 12 13 15 15 16 18 18 19 19 19 20 21 21 21 21 22 22 23 24 24 24 25 25 25 25 25 25 25 26 26 25 26 26 27 28 29 30 31 32 33
13 13 13 14 15 16 17 17 18 18 19 19 20 21 20 20 21 21 22 23 23 23 23 24 24 24 24 24 25 25 25 25 25 25 25 26 27 28 29 30 31 31 32
14 14 14 15 16 17 18 18 19 19 19 19 20 21 21 21 21 21 22 23 23 23 24 24 24 23 23 23 24 24 24 24 25 25 25 26 26 27 28 29 30 30 31
15 15 16 17 17 17 18 19 19 18 19 20 20 21 21 21 22 22 22 22 22 23 23 23 23 23 23 23 23 24 23 24 24 24 24 24 25 26 27 28 28 28 29
16 17 17 17 18 19 19 18 18 19 19 20 21 21 22 22 23 22 22 22 23 23 23 23 23 22 22 23 24 24 24 24 24 23 22 22 23 24 24 23 23 24 25

GEFSMA_500_meanwind_252.txt.gz
Wind_Speed
17 17 17 17 17 17 18 18 18 18 18 18 18 19 20 19 19 19 19 19 20 20 20 20 20 20 20 20 20 21 20 19 19 19 20 20 20 21 21 20 20 20 20
17 18 18 17 17 18 18 18 18 18 18 18 19 20 20 21 20 20 20 20 21 20 20 21 21 21 21 21 21 21 21 21 21 21 21 22 23 23 23 22 23 23 22
18 18 18 19 19 19 19 18 19 19 19 19 20 21 21 22 21 21 21 21 20 21 21 21 22 22 23 23 23 23 23 23 24 24 23 23 24 25 25 24 25 25 25
18 19 19 20 20 20 20 19 19 20 20 21 21 22 22 22 21 22 22 22 21 21 22 22 23 23 24 24 24 24 25 24 25 25 25 25 25 25 26 26 26 27 27
19 19 20 21 21 20 20 19 20 21 21 21 22 22 21 21 21 22 22 22 22 22 23 23 23 24 25 25 25 26 27 27 26 26 26 26 26 26 27 27 28 28 28
19 20 21 20 20 20 20 20 20 21 21 21 21 21 20 20 20 21 21 21 22 22 23 24 25 25 25 26 26 26 27 28 27 27 27 27 27 27 28 29 29 29 29
19 20 20 20 20 20 20 21 20 20 20 20 19 19 19 20 20 20 21 21 21 22 23 23 24 24 24 24 25 26 26 28 28 29 29 29 30 29 29 30 30 31 31
19 20 20 20 19 20 20 20 20 19 19 19 19 20 20 21 21 21 21 22 22 23 23 23 24 24 24 24 25 26 26 27 28 29 29 30 30 31 31 31 31 32 33
18 18 19 20 19 20 20 20 20 20 19 19 20 20 21 21 21 21 21 21 22 22 22 23 23 24 25 25 26 27 28 28 29 28 28 30 31 31 32 32 32 32 33
17 17 18 19 20 20 20 19 19 19 19 19 20 20 21 21 21 20 21 21 21 21 21 22 23 24 26 27 28 28 28 29 29 29 29 30 31 32 32 32 33 33 33
17 17 17 17 19 19 20 19 19 19 19 20 20 20 20 20 20 20 20 20 21 21 22 22 23 25 26 27 28 28 28 30 31 31 30 31 32 33 33 33 33 34 34
18 17 17 17 18 19 19 19 19 19 20 20 20 20 20 20 20 21 20 21 21 22 23 23 24 25 26 27 28 28 29 30 30 31 31 32 33 33 34 35 34 34 34
17 17 17 17 18 19 18 18 19 18 18 19 19 19 19 19 20 21 21 21 22 22 23 24 24 25 25 26 27 28 28 29 30 31 31 32 33 34 34 34 35 35 35
17 17 17 16 16 17 18 18 18 18 18 19 19 18 19 20 21 21 21 21 21 22 23 24 24 25 26 26 26 27 28 28 30 31 32 33 34 33 33 34 34 34 35
16 16 15 14 15 15 17 18 18 18 18 17 18 18 19 20 21 22 22 22 22 23 23 24 24 25 25 26 26 26 27 29 29 30 31 32 33 33 34 35 35 35 36
15 15 14 14 14 15 16 17 17 17 17 18 18 18 19 20 20 21 23 23 24 24 24 24 24 24 24 25 26 27 28 28 29 30 30 31 31 31 33 34 34 34 35
13 13 14 15 15 16 17 17 17 17 18 18 18 19 20 20 20 21 23 23 23 23 24 23 23 23 24 25 26 27 27 28 28 29 29 29 30 31 32 33 33 33 35
14 14 15 15 16 16 17 17 17 17 17 17 18 19 19 20 20 21 22 23 23 23 22 23 23 24 24 26 27 27 27 27 28 28 29 29 30 30 32 33 34 34 34
15 15 16 16 16 16 17 17 17 17 17 18 19 19 19 20 20 20 21 22 22 22 22 23 24 25 26 26 27 27 27 27 28 28 29 29 30 31 31 31 32 33 33
15 16 16 16 16 17 17 18 17 17 18 19 19 19 19 20 20 21 21 21 21 22 23 24 25 25 26 26 27 27 27 27 28 28 29 29 29 30 31 31 31 31 31
15 16 16 17 17 17 18 17 18 18 18 19 19 20 20 20 21 21 21 22 22 23 24 25 25 25 25 26 25 26 26 26 26 27 28 28 29 30 30 30 30 29 29
17 17 17 16 16 17 18 18 19 19 19 19 19 20 20 21 21 21 22 23 24 24 24 25 25 24 24 25 25 26 26 26 26 26 27 27 28 28 29 28 29 28 27
17 17 16 16 16 17 18 19 20 19 19 19 19 20 20 21 21 22 22 23 23 24 24 23 23 23 23 24 25 25 26 26 26 26 27 27 28 27 26 27 27 27 27
16 16 17 18 18 18 19 20 20 19 20 20 20 20 21 21 22 22 23 23 24 23 23 22 22 23 23 24 24 24 24 25 25 26 27 27 28 27 25 25 26 27 27
17 17 17 17 18 19 20 20 20 20 20 20 20 21 22 22 23 23 23 23 23 23 23 22 22 23 23 23 23 23 23 24 25 26 27 27 27 26 25 26 26 27 27
16 17 17 17 18 18 19 19 19 19 19 20 21 22 22 22 23 22 22 22 23 24 24 23 23 23 23 23 24 24 24 24 25 25 26 27 26 25 25 25 26 26 26

GEFSMA_500_meanwind_258.txt.gz
Wind_Speed
16 16 16 16 16 15 14 14 14 14 15 16 17 17 17 17 17 17 17 17 17 17 17 18 19 19 19 19 19 20 20 20 20 21 21 22 22 22 23 23 23 24 24
17 17 17 16 17 16 16 16 15 15 16 17 18 17 18 18 18 19 19 19 19 20 20 19 20 20 20 20 20 21 22 22 22 22 23 24 24 24 24 25 25 25 26
18 17 18 18 17 17 17 16 16 17 17 17 18 18 19 19 20 20 21 21 22 22 22 22 22 23 23 22 22 23 23 24 23 23 23 23 24 25 26 27 27 27 28
19 19 18 19 18 18 17 18 18 18 18 18 18 18 19 20 20 21 22 22 23 23 23 24 24 24 24 24 24 24 25 25 25 25 25 25 26 26 27 27 27 28 28
19 19 19 18 19 18 18 19 19 19 18 19 19 19 20 20 20 21 22 23 23 23 24 24 25 25 25 25 25 25 25 26 26 26 26 26 26 27 27 28 28 28 28
20 20 20 20 20 20 20 20 20 20 20 20 20 20 20 20 20 20 21 22 22 22 22 23 24 25 25 25 25 25 25 26 27 26 26 27 27 27 27 28 28 28 29
19 20 21 21 21 21 20 20 20 21 21 20 20 20 20 19 20 20 20 20 21 21 21 22 22 23 24 25 25 26 25 25 26 26 26 27 27 27 27 27 29 30 31
20 20 21 22 21 21 21 20 21 21 21 20 21 21 20 20 19 20 21 21 21 21 21 22 21 22 22 23 24 25 25 25 25 26 27 27 28 28 28 29 30 30 31
21 22 22 21 21 21 21 21 21 22 21 21 21 20 19 19 19 20 20 20 20 20 20 20 20 20 20 21 22 23 24 25 26 27 27 27 28 29 29 30 31 30 31
19 21 22 21 21 21 22 21 21 21 21 21 21 20 19 19 18 18 19 19 19 18 18 18 19 19 20 21 21 22 23 24 25 26 27 28 29 30 31 31 32 32 33
18 20 21 21 21 21 20 20 20 20 20 20 19 20 19 19 18 18 18 18 19 19 18 18 19 19 20 21 21 22 24 25 26 28 29 29 29 30 31 32 32 33 34
17 18 19 20 20 20 20 20 20 20 19 19 19 19 18 18 17 18 18 18 19 19 19 19 20 20 20 22 22 23 24 26 28 29 29 30 31 31 32 33 33 34 35
17 17 18 19 19 19 20 20 20 20 20 19 19 19 18 18 18 18 18 18 18 19 19 19 20 21 22 23 23 24 25 26 28 29 28 29 30 31 32 32 33 35 36
18 18 18 18 18 18 19 20 19 19 19 19 19 19 19 19 19 19 19 19 19 19 19 20 21 22 23 24 24 25 26 26 27 27 27 28 29 30 31 32 33 34 35
18 18 19 18 18 19 19 19 19 20 20 19 19 19 19 19 20 19 19 19 19 19 20 20 21 22 23 23 24 25 25 26 26 26 27 28 29 30 31 31 32 33 34
18 18 18 20 19 19 19 20 20 20 20 20 19 19 19 20 20 20 20 20 20 21 21 21 22 22 23 23 24 24 25 26 26 26 27 28 28 29 30 30 31 31 32
19 19 19 19 19 20 20 20 20 21 20 20 20 19 19 19 20 20 20 21 21 21 21 21 22 22 23 23 24 25 25 26 26 27 28 28 29 29 29 29 30 31 31
19 19 19 19 20 21 21 20 19 19 19 19 19 20 20 20 20 20 20 20 20 20 20 20 21 22 22 23 24 25 26 26 26 27 28 28 28 29 29 30 30 31 32
18 19 19 19 20 20 20 20 19 18 18 19 19 19 19 19 20 20 19 19 19 20 21 21 22 22 23 24 25 25 25 26 27 27 28 28 28 29 29 30 30 31 31
17 18 19 19 19 19 19 18 17 17 18 19 19 19 20 19 19 19 19 19 20 21 21 22 22 23 24 24 25 25 25 26 26 27 27 27 27 28 29 29 29 30 31
17 18 18 19 19 19 18 18 18 19 20 20 20 20 20 20 20 19 19 20 21 21 21 22 23 24 24 25 25 25 26 27 27 27 26 26 27 27 28 29 29 29 29
16 17 17 17 18 18 18 18 19 20 20 20 20 20 20 21 21 20 20 20 20 21 21 22 23 24 24 25 25 25 25 26 26 26 25 25 26 27 28 28 28 28 28
15 15 15 16 17 17 17 18 18 19 19 18 19 20 21 20 20 20 20 21 21 22 22 23 24 24 24 25 25 25 25 25 25 25 25 25 25 26 27 28 27 28 28
15 15 16 16 16 17 17 17 18 18 18 18 18 18 19 20 19 20 20 21 21 22 23 24 24 24 24 25 25 25 25 25 24 24 25 25 26 26 27 27 27 27 26
16 16 16 15 15 16 17 18 18 17 17 16 17 17 18 18 19 20 20 20 21 22 22 23 24 24 24 25 25 25 25 25 24 24 25 26 26 27 27 27 27 26 25
16 16 16 15 16 16 16 17 17 17 16 15 16 16 17 18 19 19 19 20 20 21 22 23 23 24 24 24 24 25 25 24 24 24 25 26 26 27 26 25 25 25 24

GEFSMA_500_meanwind_264.txt.gz
Wind_Speed
17 17 16 15 15 15 15 15 14 14 14 14 14 15 16 16 15 16 16 17 17 17 18 18 18 18 18 18 19 20 20 20 20 20 20 20 21 22 21 21 21 22 22
18 18 17 17 16 16 15 15 16 15 15 15 15 16 16 17 17 17 18 18 19 19 20 21 21 21 21 21 21 21 21 22 22 22 22 22 22 22 22 23 23 23 24
18 18 17 17 17 16 16 16 17 18 17 17 16 17 16 17 17 18 19 19 20 21 21 22 22 22 22 22 22 23 22 23 23 23 23 23 23 24 24 24 25 25 25
18 17 17 17 17 17 17 17 18 18 18 18 17 17 17 18 19 20 20 20 20 21 21 21 22 22 22 22 23 23 23 24 24 24 24 24 25 25 25 25 26 26 27
18 18 18 17 17 18 17 19 19 18 18 18 18 18 18 19 20 21 20 20 21 21 21 21 21 21 22 23 23 23 23 23 24 24 25 25 25 25 25 26 27 27 27
18 19 18 18 18 19 19 20 19 19 19 19 19 19 19 20 21 21 21 21 21 20 20 20 20 21 22 22 23 23 23 24 24 24 24 25 25 25 26 27 28 28 29
18 19 19 18 19 19 19 19 20 19 19 19 20 20 20 20 21 21 21 20 20 19 19 19 20 21 22 22 22 23 23 24 24 24 24 25 25 26 27 27 28 29 30
18 19 19 19 19 20 20 20 20 20 20 20 21 21 20 21 20 20 20 20 19 18 19 18 18 19 19 20 21 22 22 23 23 23 24 25 25 26 27 27 28 28 28
18 18 19 19 20 21 20 19 20 20 20 21 21 21 20 20 21 20 19 19 19 20 19 19 19 19 19 19 19 20 21 22 22 23 24 25 26 26 27 27 29 29 29
18 18 19 19 20 20 20 20 20 21 21 21 21 21 21 21 21 20 19 19 19 20 19 20 19 19 19 20 19 20 20 21 22 23 25 26 27 27 28 28 29 30 30
18 18 19 19 20 19 20 20 20 21 21 21 21 22 22 21 21 21 19 19 19 19 19 19 19 18 19 19 20 20 20 22 23 24 25 27 28 29 29 30 30 30 30
17 18 18 18 18 19 19 19 20 21 21 22 21 22 22 22 21 21 20 20 20 19 18 19 19 19 20 20 21 21 22 22 23 25 26 27 28 29 29 30 30 30 30
17 17 17 17 18 18 19 19 20 20 20 22 22 22 22 21 21 21 22 21 21 20 19 19 20 20 20 20 21 21 21 22 23 24 25 26 26 27 28 29 30 30 31
17 18 19 19 19 19 20 20 21 21 21 21 22 22 22 21 21 22 22 21 21 21 20 20 20 20 21 21 21 21 22 22 22 23 24 25 25 27 28 27 28 29 30
18 18 19 19 19 20 20 21 21 21 21 22 22 22 21 21 22 22 22 22 22 21 21 21 21 21 22 22 21 22 22 21 22 23 24 25 25 25 26 26 26 28 28
19 20 19 19 19 20 21 21 21 21 22 22 22 22 22 22 23 23 23 23 22 21 21 21 21 21 22 21 20 21 21 21 22 23 24 24 24 25 25 25 26 27 27
20 21 20 20 21 22 22 22 21 22 22 23 23 23 24 24 24 24 24 23 22 21 21 22 21 21 21 19 20 21 21 21 21 22 23 24 24 25 24 25 25 26 26
21 21 21 21 22 22 22 21 21 22 22 23 22 22 23 23 23 23 22 22 21 21 21 21 21 20 20 19 20 21 21 21 22 22 24 24 25 25 24 24 24 25 26
21 20 20 21 21 21 21 21 21 21 22 22 22 22 22 22 22 22 21 21 21 20 20 21 20 20 20 20 20 21 22 22 23 23 24 25 25 26 25 25 25 26 27
19 18 19 20 20 21 21 21 22 21 21 21 21 21 21 21 21 22 21 21 20 19 19 19 20 20 19 19 20 20 21 22 23 24 25 25 26 26 25 26 26 27 28
18 18 19 19 20 20 21 21 21 21 21 21 21 20 20 20 21 20 20 20 20 19 19 19 20 19 18 19 20 21 22 22 23 24 25 25 25 25 25 26 26 27 28
18 18 19 19 20 20 20 20 20 19 20 20 20 19 20 20 20 19 20 19 19 19 20 20 20 20 20 20 21 22 22 23 23 24 25 26 26 26 25 26 27 28 29
19 19 20 20 20 20 20 19 19 19 19 19 19 20 20 20 19 19 19 19 19 20 20 20 21 22 22 22 22 22 23 23 24 24 25 25 25 26 26 27 27 27 28
19 19 20 19 19 19 19 19 19 19 19 20 20 19 19 19 20 19 19 19 20 21 21 21 21 23 24 24 23 24 24 24 24 24 25 25 25 25 25 26 26 28 29
19 19 19 19 19 19 19 19 19 19 19 19 19 19 20 20 20 20 19 19 20 20 21 21 21 23 24 24 24 25 25 24 24 24 25 25 25 25 25 26 26 27 27
21 20 20 19 19 19 19 18 18 19 18 18 18 17 18 19 19 20 20 20 21 21 22 22 22 23 24 24 25 26 26 26 25 25 25 25 25 26 25 25 25 24 24

GEFSMA_500_meanwind_270.txt.gz
Wind_Speed
15 15 16 16 15 15 15 14 14 13 14 13 13 14 13 14 14 14 15 15 15 15 16 17 17 17 18 18 18 18 18 18 18 18 19 18 19 19 19 19 18 19 19
15 15 16 15 15 15 14 14 14 15 15 15 14 14 14 14 15 16 17 17 17 17 17 18 18 18 19 19 19 19 19 19 19 19 20 20 19 19 20 20 20 21 21
15 15 15 15 16 15 15 14 15 14 15 16 15 15 15 15 16 17 17 17 18 18 18 18 19 19 19 19 20 20 20 20 20 20 20 21 20 20 21 22 22 23 23
14 14 14 15 15 16 16 15 15 15 16 16 16 16 16 16 16 17 17 18 19 19 19 19 19 19 19 20 20 20 20 21 20 21 21 21 22 22 22 23 23 23 23
15 15 14 15 16 16 16 17 16 17 17 17 17 16 17 17 17 17 18 18 19 19 19 19 19 19 20 20 20 21 21 21 21 22 22 22 22 23 23 23 24 23 24
14 15 14 15 15 15 15 16 17 17 17 17 17 17 18 18 18 18 18 18 18 19 19 19 20 20 20 20 21 21 22 23 23 24 23 23 23 23 23 23 24 24 24
14 15 15 15 15 15 15 15 16 17 18 18 17 18 18 19 19 18 19 19 19 20 20 20 21 21 21 21 21 22 23 23 24 25 24 24 24 24 24 24 25 25 26
14 14 15 15 14 15 16 16 16 17 18 19 19 19 19 20 19 19 19 20 19 20 20 21 21 21 21 21 22 22 23 23 24 24 24 25 25 24 24 25 26 26 26
15 15 15 16 15 15 16 16 16 17 18 18 19 19 20 20 20 20 20 20 20 20 20 21 21 20 20 21 22 22 22 23 24 24 24 25 25 25 25 25 26 27 27
17 17 16 16 16 15 15 16 17 17 18 18 19 19 20 20 20 21 21 21 20 20 20 21 21 20 20 21 21 20 20 21 23 24 25 25 25 25 26 26 26 27 28
16 17 17 17 16 16 16 16 17 17 18 19 19 19 20 21 21 21 21 21 21 20 20 20 21 20 20 21 21 21 20 21 22 23 24 25 26 26 26 26 26 27 28
16 16 16 16 17 17 17 17 17 18 18 18 18 19 20 20 20 21 21 21 21 20 20 20 20 20 20 20 20 20 21 22 22 22 24 24 26 27 27 27 27 27 29
16 17 17 16 16 17 17 17 17 17 17 18 18 19 20 19 20 20 20 20 20 20 19 19 20 19 19 19 19 20 20 21 22 22 24 25 25 26 26 27 27 28 29
17 17 17 17 17 17 17 17 17 17 17 18 19 20 20 20 20 20 20 20 19 19 19 20 20 20 19 19 19 20 20 21 22 23 24 25 25 25 25 26 26 27 28
16 16 16 16 17 18 18 18 18 18 18 20 21 21 21 21 21 20 20 20 19 19 19 19 19 19 20 21 20 20 20 21 22 23 24 25 25 25 25 25 25 26 27
16 16 16 17 17 17 18 18 18 19 20 21 21 21 21 21 21 21 21 20 20 19 19 19 20 19 20 20 20 21 22 22 23 23 24 24 24 25 25 25 25 26 27
17 17 17 18 17 17 17 17 17 18 20 20 20 21 21 21 21 21 21 21 21 20 20 19 20 20 20 20 20 21 22 23 24 24 25 25 25 25 25 26 27 27 27
18 18 18 18 17 17 18 18 19 19 19 19 20 20 20 20 20 21 22 22 21 21 21 21 21 21 21 21 21 21 21 22 24 25 25 25 25 25 26 27 28 28 28
19 18 18 18 18 19 19 19 20 20 20 20 20 20 20 20 20 20 21 21 21 21 22 22 22 22 22 21 21 21 21 22 23 23 23 24 25 26 26 27 27 27 28
18 18 18 19 19 19 20 20 19 19 20 20 19 20 20 19 19 20 20 20 20 21 21 21 21 21 21 21 20 21 21 22 22 22 23 24 24 25 26 27 28 28 29
19 19 19 19 20 20 20 20 20 20 20 20 20 20 19 19 19 19 19 20 20 20 20 20 21 21 20 20 20 21 21 21 21 21 22 23 24 25 26 27 27 28 29
20 20 19 19 19 19 19 20 20 20 20 20 20 19 18 18 18 18 19 19 20 20 20 21 21 20 20 20 20 21 21 21 21 21 22 23 24 25 26 27 28 29 29
19 19 19 19 19 20 20 20 20 20 20 20 20 19 18 18 18 19 19 19 19 19 20 21 20 20 21 20 20 21 21 21 21 22 22 23 24 25 27 27 28 29 29
20 19 19 19 19 20 20 20 21 20 20 20 20 19 19 19 19 19 19 20 20 20 20 20 20 20 21 21 21 21 22 22 22 22 23 23 24 26 27 28 28 29 28
21 20 19 19 19 20 20 20 20 21 20 20 20 19 20 20 20 20 20 21 21 21 21 21 20 21 22 22 21 21 21 22 21 22 23 24 25 26 26 27 27 27 27
19 19 20 20 20 20 20 20 21 21 20 20 19 20 20 20 20 21 21 21 21 21 22 22 21 22 22 22 22 22 22 22 22 22 24 25 26 26 25 25 25 25 25

GEFSMA_500_meanwind_276.txt.gz
Wind_Speed
13 13 14 14 14 14 14 13 14 14 14 13 13 13 14 13 13 14 14 14 14 14 15 15 15 15 16 16 15 15 15 15 15 15 15 16 16 16 17 17 17 17 18
13 13 14 14 14 14 14 15 15 15 14 14 14 14 15 15 15 15 16 15 15 15 15 16 16 16 16 16 16 16 16 16 16 16 17 16 16 17 17 18 18 18 19
13 14 14 14 15 15 15 15 15 15 14 14 14 15 15 16 16 16 16 16 16 16 16 17 17 16 17 18 18 18 18 19 19 19 18 18 18 18 18 19 20 20 20
13 14 14 14 15 15 15 15 15 15 16 16 15 16 16 16 16 16 16 17 17 17 17 17 17 17 18 19 19 20 20 20 20 20 20 21 20 20 20 20 21 22 23
15 15 15 15 15 15 15 16 16 16 16 16 16 17 17 16 17 17 18 18 18 18 18 18 18 19 19 19 19 21 21 22 22 21 22 22 22 23 22 22 22 22 23
15 15 15 15 16 16 16 16 15 16 16 17 17 18 17 17 18 18 18 19 19 19 19 19 20 20 19 20 20 21 22 22 22 22 23 23 24 24 24 24 23 23 24
15 15 15 16 16 16 16 16 16 16 17 17 18 18 18 18 19 19 19 19 19 19 20 21 21 20 21 21 21 21 22 22 23 23 23 24 24 24 25 25 24 25 25
14 15 16 16 17 17 16 17 17 17 18 18 17 18 18 18 19 19 19 19 19 20 21 21 21 21 22 22 22 22 22 23 23 23 23 24 25 24 24 24 25 26 26
13 15 15 15 16 17 17 18 18 19 19 18 18 18 18 18 19 19 20 20 20 21 21 21 21 22 22 23 23 23 22 23 23 24 24 24 25 25 24 24 24 25 26
14 14 14 15 16 17 18 19 19 19 19 19 18 18 18 19 20 20 20 21 22 22 22 21 22 22 23 23 22 23 23 23 23 24 25 25 25 25 24 24 25 26 26
15 15 15 16 17 18 19 19 19 19 19 18 18 19 19 19 20 20 20 21 22 22 21 22 22 23 23 23 23 23 23 23 23 23 24 24 25 25 26 26 26 27 27
15 15 16 17 18 18 19 19 19 19 19 19 19 19 19 19 20 20 21 20 21 21 21 21 22 22 22 22 22 22 22 22 22 22 23 23 24 25 26 27 27 27 27
16 17 17 18 18 19 19 20 20 20 20 20 20 20 20 20 20 21 21 21 21 21 22 21 21 21 22 21 21 21 22 22 22 21 21 23 23 25 25 27 27 27 27
16 17 17 18 19 18 19 20 21 21 20 21 21 21 21 21 22 22 22 22 22 21 21 21 21 22 22 21 21 21 21 21 21 21 21 22 24 25 25 26 27 27 28
17 17 18 18 19 19 19 20 20 20 20 20 21 21 21 22 23 23 23 23 22 22 22 22 22 23 23 22 21 21 20 21 21 22 22 23 24 25 25 26 27 28 28
18 18 19 19 19 19 20 20 20 20 21 21 21 22 22 23 22 23 23 23 23 23 23 23 23 23 23 23 23 23 23 23 22 23 23 24 25 26 26 26 27 27 27
18 19 20 20 20 20 20 21 21 21 21 21 22 22 23 23 23 23 23 22 22 23 22 22 22 22 22 23 23 23 24 24 24 24 24 24 25 26 26 26 26 26 27
20 20 20 21 21 21 21 21 22 22 22 22 22 23 23 22 23 22 22 22 22 22 22 22 22 22 22 22 23 23 23 24 24 25 25 24 25 25 26 26 27 27 27
21 21 21 21 21 22 22 22 23 23 23 23 23 23 23 23 22 22 22 22 22 22 21 21 22 22 22 22 23 22 23 24 24 25 25 25 25 25 25 26 26 27 27
21 22 21 22 22 23 23 23 24 24 24 23 23 23 23 22 22 21 21 21 21 21 21 21 21 21 21 22 23 23 23 25 25 25 24 24 25 25 25 26 26 27 28
22 22 22 22 22 23 23 23 23 24 23 22 22 22 22 22 21 22 22 21 21 21 21 21 22 22 22 22 23 23 24 24 25 25 24 24 25 25 26 27 26 27 28
22 22 23 23 23 23 24 24 23 23 23 22 22 23 22 22 22 22 22 21 21 21 22 22 22 23 23 23 24 24 25 24 24 24 24 24 25 25 26 27 27 27 28
22 21 22 22 22 23 23 23 23 23 23 23 23 23 23 23 23 22 22 22 22 22 22 22 22 23 23 23 24 24 24 24 24 24 24 24 24 24 25 26 27 27 27
22 22 21 21 21 22 22 22 22 22 23 22 22 23 23 22 23 23 23 23 23 23 23 23 23 23 23 24 24 24 23 23 24 25 25 25 25 25 25 26 27 27 27
22 22 23 22 21 21 21 21 22 22 22 22 22 22 22 22 23 23 23 24 24 24 24 24 24 24 24 25 25 24 24 24 24 25 25 25 25 25 26 25 26 26 26
21 22 22 21 21 21 21 21 22 22 22 22 22 22 23 23 24 24 24 24 24 24 24 25 25 25 25 25 25 25 25 24 23 23 24 24 25 25 25 26 26 26 25

GEFSMA_500_meanwind_282.txt.gz
Wind_Speed
13 13 13 12 12 12 12 12 12 12 12 12 12 12 12 12 12 12 12 12 13 13 14 13 13 14 14 14 15 15 15 16 15 15 15 15 16 16 16 15 16 16 16
14 14 13 12 13 13 13 13 13 12 12 11 12 12 13 13 13 13 14 14 14 15 15 15 15 14 15 16 17 17 16 17 17 17 17 17 17 17 17 16 16 17 18
14 14 14 13 13 13 13 14 13 13 12 13 13 13 13 13 14 14 15 15 15 15 15 15 15 15 16 16 17 17 17 18 18 18 18 18 18 18 18 18 18 18 19
14 15 14 14 13 14 14 13 14 13 13 13 13 14 14 14 14 15 15 15 16 16 16 16 16 16 17 17 18 18 18 18 19 19 18 19 19 19 19 19 19 19 20
15 15 15 15 15 14 14 14 14 14 14 14 14 14 14 14 15 15 16 16 16 17 17 17 17 18 18 18 18 18 18 18 19 19 19 19 20 21 20 20 20 21 22
14 14 15 15 15 15 15 14 14 15 14 15 15 15 15 15 16 16 16 16 17 17 17 17 18 18 19 18 18 18 19 20 20 21 21 21 20 21 21 22 22 22 23
15 15 15 15 16 16 16 16 15 15 15 15 15 15 15 16 16 16 16 16 16 16 16 17 17 18 19 19 18 18 19 20 20 21 22 22 21 21 21 22 22 23 24
16 17 16 16 17 17 17 16 15 16 16 16 16 16 16 16 17 16 16 16 16 17 17 17 17 17 18 18 19 19 19 19 20 21 22 22 22 21 22 22 23 24 24
17 17 17 16 17 17 17 17 16 16 17 17 16 17 17 17 17 18 17 17 17 18 18 19 19 19 19 19 19 19 20 20 21 22 22 23 23 23 24 24 24 24 25
18 18 17 17 18 18 17 17 17 17 17 17 18 18 19 19 18 18 18 19 19 19 19 20 21 20 20 20 19 19 20 20 20 21 22 23 23 24 25 25 25 25 25
19 19 19 18 18 18 18 18 18 18 18 18 18 19 19 18 18 19 19 20 20 20 20 21 21 21 21 20 20 20 20 21 22 22 22 23 23 24 25 25 26 26 27
19 18 18 17 18 18 18 19 18 19 18 19 19 18 18 18 19 19 20 21 21 21 21 21 21 21 21 21 21 22 21 21 22 22 22 23 24 25 26 26 26 27 27
17 17 18 18 17 18 18 19 19 19 19 19 19 18 19 19 20 20 22 22 22 22 22 22 22 22 22 23 22 22 22 23 22 22 23 23 25 26 26 27 27 28 28
17 17 18 19 18 19 19 19 19 19 20 20 20 20 21 21 21 21 21 22 23 23 23 22 22 21 22 22 22 22 23 22 23 22 23 24 25 26 27 27 27 27 28
19 19 19 19 20 20 20 19 20 20 20 20 21 22 22 22 22 22 22 22 22 22 22 22 22 22 22 22 22 23 22 22 23 23 23 24 25 26 26 27 27 27 28
19 20 20 20 21 21 20 21 21 21 21 22 22 22 23 23 23 23 22 22 21 21 21 22 22 22 22 22 22 22 23 24 24 24 24 24 25 25 26 27 27 28 28
19 20 20 20 21 22 22 22 22 22 22 23 23 23 23 22 22 22 22 22 22 21 21 21 22 22 23 23 22 22 23 24 24 24 24 24 24 25 26 27 27 28 28
20 20 21 22 22 22 22 22 22 22 22 23 23 23 23 23 23 23 23 23 22 21 21 21 22 23 23 24 23 23 23 24 24 25 25 25 26 26 26 26 27 28 28
21 21 22 22 22 22 22 22 22 22 22 22 23 23 23 23 24 24 23 23 22 22 22 22 22 23 24 24 24 24 24 24 24 24 25 26 26 26 25 26 26 27 28
22 22 22 22 22 22 22 22 22 22 23 23 24 24 24 24 25 24 23 23 23 23 23 23 23 23 23 23 24 24 24 24 24 24 25 25 25 26 25 26 26 27 28
23 23 22 22 21 22 22 23 23 23 23 23 24 23 24 25 25 24 24 23 24 24 24 23 23 23 23 23 23 24 24 24 24 24 24 24 24 24 24 25 26 26 27
23 22 21 21 21 22 22 22 23 24 23 24 23 23 24 25 25 24 24 24 24 24 24 24 24 24 23 23 23 23 23 24 23 23 24 25 25 25 24 25 26 27 27
21 21 22 21 22 22 22 23 24 24 24 23 23 24 25 24 24 24 24 24 24 24 24 24 24 24 24 24 24 23 23 24 24 24 24 24 25 24 24 25 26 26 26
22 22 22 22 22 22 23 24 24 24 24 24 24 24 23 23 24 24 24 24 24 24 24 25 25 24 25 25 25 24 24 24 24 25 25 26 25 24 24 25 25 24 24
21 21 22 22 22 22 23 23 24 24 24 24 24 24 24 24 24 24 25 24 24 24 24 25 25 25 25 25 26 26 25 25 25 25 25 25 25 25 25 25 25 24 24
23 23 22 23 23 23 23 23 23 24 24 24 24 25 24 24 24 24 24 24 25 25 25 25 25 25 25 26 26 27 26 26 26 25 25 25 26 26 26 25 24 24 24